Location: Bennemühlen
(52.5740°N, 9.7135°E)
Time: 16:38:24
(UTC+00:00)

SR - Pass Details

Date: 20 February 2026
Orbit: 572 x 848 km, 66.7° (Epoch: 8 March)

Event Time Altitude Azimuth Distance (km) Brightness Sun altitude
Exits shadow 02:50:54 21° 93° (E) 1,356 ? -32.8°
Drops below altitude 10° 02:53:27 10° 61° (ENE) 1,987 ? -32.5°
Sets 02:56:09 0° 47° (NE) 2,943 ? -32.1°
